Preview of NWS' New Version of Forecast
This preview is not operational and should not be used for support decisions.

Regional Weather Roundup (RWR)

Issued by National Weather Service (NWS)

                            
000
ASUS45 KABQ 230010
RWRNM 
NEW MEXICO REGIONAL WEATHER ROUNDUP
NATIONAL WEATHER SERVICE ALBUQUERQUE NM
600 PM MDT MON JUL 22 2019

NOTE: "FAIR" MEANS FEW OR NO CLOUDS BELOW 12,000 FEET AGL WITH NO
       SIGNIFICANT WEATHER OR OBSTRUCTIONS TO VISION.

      THIS PRODUCT IS RELEASED AS TWO VERSIONS.  ONE VERSION NEAR
      THE TOP OF THE HOUR CONTAINING PRELIMINARY DATA FROM ALBUQUERQUE
      AND OTHER STATIONS.  A FINAL VERSION WITH ADDITIONAL DATA IS 
      ISSUED ABOUT 10 MINUTES AFTER THE HOUR.
 
NMZ501-503-504-510>518-230100-
NORTHWEST PLATEAU/NORTHCENTRAL MOUNTAINS
  
CITY           SKY/WX    TMP DP  RH WIND       PRES   REMARKS
FARMINGTON     FAIR      86  44  23 E24G31    30.21R                  
6HR MIN TEMP:  86; 6HR MAX TEMP:  98;                                

LOS ALAMOS       N/A     76  45  33 N22G30    30.44R                  
SANTA FE       PTSUNNY   81  50  33 SE18G26   30.34S                  
6HR MIN TEMP:  80; 6HR MAX TEMP:  86;                                

ANGEL FIRE       N/A     58  52  80 S9        30.55R                  

$$
NMZ402-403-502-505>509-230100-
WESTCENTRAL MOUNTAINS/SOUTHWEST MOUNTAINS
  
CITY           SKY/WX    TMP DP  RH WIND       PRES   REMARKS
GALLUP         FAIR      76  44  32 SE20G29   30.29F                  
6HR MIN TEMP:  74; 6HR MAX TEMP:  92; 6HR PCP: TRACE;                

GRANTS         FAIR      80  42  25 NW14G23   30.34R                  
SILVER CITY    PTSUNNY   74  60  61 N16       30.24S                  

$$
NMZ407-409-411-412-230100-
SOUTHERN DESERTS
  
CITY           SKY/WX    TMP DP  RH WIND       PRES   REMARKS
DEMING         FAIR      91  52  26 SE9       30.13F                  
6HR MIN TEMP:  85; 6HR MAX TEMP:  94;                                

LAS CRUCES     FAIR      90  48  23 SE14G20   30.17F                  
ALAMOGORDO     FAIR      79  59  50 NE5       30.17F                  
T OR C         LGT RAIN  87  56  34 S20       30.18R                  
6HR MIN TEMP:  87; 6HR MAX TEMP:  96; 6HR PCP: TRACE;                


$$
NMZ519>523-230100-
CENTRAL VALLEYS/CENTRAL HIGHLANDS
  
CITY           SKY/WX    TMP DP  RH WIND       PRES   REMARKS
ALBUQUERQUE    PTSUNNY   87  53  31 SE20      30.23S                  
6HR MIN TEMP:  81; 6HR MAX TEMP:  89;                                

DOUBLE EAGLE   MOSUNNY   88  50  27 E15G24    30.27S                  
MORIARTY ARPT  FAIR      81  52  36 E16       30.36S                  
6HR MIN TEMP:  78; 6HR MAX TEMP:  85;                                

CLINES CORNERS FAIR      72  51  47 SE16G26   30.42F                  
6HR MIN TEMP:  70; 6HR MAX TEMP:  76;                                

BELEN          FAIR      88  47  24 SE10      30.22S                  
6HR MIN TEMP:  85; 6HR MAX TEMP:  91;                                

SOCORRO        FAIR      88  49  25 E10G17    30.19S                  
6HR MIN TEMP:  84; 6HR MAX TEMP:  91; 6HR PCP:  0.06;                


$$
NMZ524>526-539-540-230100-
SOUTHCENTRAL MOUNTAINS
  
CITY           SKY/WX    TMP DP  RH WIND       PRES   REMARKS
RUIDOSO          N/A     72  55  56 E16G22    30.42S                  

$$
NMZ527>531-230100-
NORTHEAST HIGHLANDS/NORTHEAST PLAINS
  
CITY           SKY/WX    TMP DP  RH WIND       PRES   REMARKS
LAS VEGAS      CLOUDY    71  52  50 SE10      30.42F                  
6HR MIN TEMP:  71; 6HR MAX TEMP:  77;                                

RATON          PTSUNNY   76  54  46 S14G23    30.38R                  
6HR MIN TEMP:  75; 6HR MAX TEMP:  84;                                

CLAYTON        PTSUNNY   75  58  55 E15       30.33S                  
6HR MIN TEMP:  75; 6HR MAX TEMP:  81;                                


$$
NMZ532>537-230100-
EASTCENTRAL PLAINS
  
CITY           SKY/WX    TMP DP  RH WIND       PRES   REMARKS
SANTA ROSA     FAIR      83  56  40 E14       30.29F                  
TUCUMCARI      FAIR      83  57  41 E10       30.23F                  
6HR MIN TEMP:  72; 6HR MAX TEMP:  84;                                

CANNON AFB     CLOUDY    78  58  50 NE12      30.27F                  
6HR MIN TEMP:  71; 6HR MAX TEMP:  79; 6HR PCP: TRACE;                

CLOVIS AIRPORT FAIR      83  57  41 E13       30.26F                  

$$
NMZ028-029-538-230100-
SOUTHEAST PLAINS
  
CITY           SKY/WX    TMP DP  RH WIND       PRES   REMARKS
ROSWELL        LGT RAIN  81  66  60 NE6       30.20S                  
6HR MIN TEMP:  77; 6HR MAX TEMP:  89; 6HR PCP:  0.02;                

ARTESIA        FAIR      75  64  69 S17G25    30.24R                  
CARLSBAD       LGT RAIN  66  63  90 W6        30.19F                  
6HR MIN TEMP:  64; 6HR MAX TEMP:  88;                                

HOBBS          TSTM      70  63  78 SW10      30.23S                  


$$